Location: Paddlesworth
(51.1000°N, 1.1333°E)
Time: 02:46:32
(UTC+00:00)

Cosmos 1933 - Pass Details

Date: 11 May 2021
Orbit: 547 x 563 km, 82.5° (Epoch: 14 June)

Event Time Altitude Azimuth Distance (km) Brightness Sun altitude
Rises 20:08:50 0° 182° (S) 2,726 6.5 -5.4°
Reaches altitude 10° 20:11:00 10° 179° (S) 1,833 5.6 -5.7°
Maximum altitude 20:15:00 68° 97° (E) 601 3.3 -6.2°
Drops below altitude 10° 20:19:02 10° 15° (NNE) 1,840 6.3 -6.6°
Sets 20:21:12 0° 13° (NNE) 2,737 7.3 -6.9°
